STARLINK-31908 (59901 NORAD) Tracking and Keplerian Element Data

This shows tracking and keplerian element data for the satellite.

Feedback or suggestion? Click here.




ElementValue
Catalog59901
NameSTARLINK-31908
Epoch Orbit291
Epoch Day160.16667824
Epoch Year2024
RAAN174.3174
Inclination43.0029
Eccentricity0.0001086
Argument of Perigee266.4618
Mean Anonmoly343.8806
Mean Motion15.79926278
Decay Rate-0.01092891
L11 59901U 24100S 24160.16667824 -.01092891 00000+0 -63652-2 0 9999
L22 59901 43.0029 174.3174 0001086 266.4618 343.8806 15.79926278 2919



Live tracking and technical data element details for STARLINK-31908 (NORAD 59901). STARLINK-31908 can be tracked NOW for your location showing map with azimuth and elevation plus other details from your city location.







IsCatalogInMostPopularTable: catalog: 59901, numindb: 5
Update: records affected: 1



GetName: 59901 STARLINK-31908

Hit Count: updated at: Tue, 16 Jul 2024 02:00:15 GMT